+07,Max TemperatureF,Mean TemperatureF,Min TemperatureF,Max Dew PointF,MeanDew PointF,Min DewpointF,Max Humidity, Mean Humidity, Min Humidity, Max Sea Level PressureIn, Mean Sea Level PressureIn, Min Sea Level PressureIn, Max VisibilityMiles, Mean VisibilityMiles, Min VisibilityMiles, Max Wind SpeedMPH, Mean Wind SpeedMPH, Max Gust SpeedMPH,PrecipitationIn, CloudCover, Events, WindDirDegrees
2014-3-1,97,86,74,73,71,68,85,61,33,29.89,29.80,29.68,4,3,1,7,3,,0.00,2,,58
2014-3-2,98,86,73,75,72,69,89,61,31,29.86,29.77,29.65,5,3,1,5,2,,0.00,1,,267
2014-3-3,99,86,73,71,68,66,88,56,25,29.86,29.77,29.67,4,2,1,5,3,,0.00,2,,236
2014-3-4,99,85,71,72,67,59,83,55,18,29.92,29.82,29.71,3,2,1,7,3,,0.00,2,,353
2014-3-5,95,83,71,72,69,64,100,59,29,29.95,29.82,29.70,5,3,1,7,3,,0.00,2,,62
2014-3-6,95,84,72,73,71,66,83,64,40,29.92,29.82,29.69,5,2,1,5,3,,0.00,1,,43
2014-3-7,90,81,72,71,69,66,88,58,28,29.92,29.83,29.73,3,2,1,5,3,,0.00,2,,85
2014-3-8,93,82,72,70,68,66,88,63,41,29.95,29.86,29.77,3,2,1,5,3,,0.00,3,,345
2014-3-9,95,84,74,73,70,66,78,58,34,29.95,29.84,29.72,4,3,1,5,3,,0.00,2,,43
2014-3-10,91,84,77,75,71,68,78,63,44,29.98,29.88,29.77,4,3,1,7,3,,0.00,3,,106
2014-3-11,91,82,74,73,71,66,89,65,36,30.01,29.90,29.79,3,2,1,5,3,,0.00,5,,192
2014-3-12,97,86,74,74,72,70,89,65,36,29.95,29.82,29.70,3,2,1,5,2,,0.00,2,,201
2014-3-13,100,88,76,73,71,68,79,57,27,29.89,29.80,29.68,4,3,1,2,2,,0.00,2,,7
2014-3-14,96,87,78,75,72,68,74,57,42,29.95,29.87,29.77,4,3,1,12,6,,0.00,2,,87
2014-3-15,87,80,74,70,67,64,78,62,46,30.04,29.95,29.86,3,2,1,7,4,,0.00,4,,117
2014-3-16,92,82,73,75,70,68,83,66,43,30.04,29.94,29.81,3,2,1,5,3,,0.00,2,,145
2014-3-17,87,82,78,75,71,68,89,67,49,29.98,29.89,29.79,4,2,1,5,3,,0.00,4,,61
2014-3-18,98,86,73,77,73,71,94,66,35,29.95,29.82,29.69,4,3,1,5,2,,0.00,1,,134
2014-3-19,99,88,77,75,72,68,84,61,36,29.86,29.75,29.62,3,2,1,7,3,,0.00,2,Thunderstorm,175
2014-3-20,98,83,68,74,70,68,83,61,38,29.86,29.77,29.64,3,2,1,7,3,,0.00,3,,268
2014-3-21,94,84,74,73,69,64,89,58,39,29.89,29.79,29.69,4,3,1,12,5,,0.00,3,,116
2014-3-22,74,71,68,66,64,63,88,76,63,29.98,29.92,29.84,3,3,1,7,3,,0.16,4,Rain,75
2014-3-23,84,76,69,68,67,66,94,77,58,30.04,29.97,29.89,4,2,1,9,3,,0.00,4,,356
2014-3-24,86,78,71,70,68,64,88,70,42,30.12,29.92,29.57,4,3,1,9,4,,0.01,3,Rain-Thunderstorm,108
2014-3-25,90,80,71,72,70,68,94,72,43,29.95,29.83,29.71,4,2,1,7,3,,0.16,5,Rain,105
2014-3-26,94,82,69,75,72,69,88,64,39,29.89,29.78,29.67,4,3,1,5,2,,0.00,1,,135
2014-3-27,95,86,76,73,71,70,83,59,41,29.86,29.76,29.64,3,2,1,5,3,,0.00,1,,75
2014-3-28,98,87,76,77,73,70,83,60,34,29.83,29.73,29.59,4,3,1,7,3,,0.00,2,,156
2014-3-29,98,88,77,75,72,68,83,60,33,29.83,29.72,29.60,4,3,1,5,3,,0.00,3,,52
2014-3-30,100,88,76,77,74,72,89,60,35,29.80,29.69,29.57,4,3,1,2,2,,0.00,1,,116
2014-3-31,101,88,75,75,71,67,89,54,30,29.86,29.67,29.56,3,2,1,7,3,,0.00,1,,158